Location: Coupvray
(48.8929°N, 2.7967°E)
Time: 19:10:57
(UTC+00:00)

CBERS-1 - Pass Details

Date: 14 July 2020
Orbit: 769 x 777 km, 98.6° (Epoch: 14 August)

Event Time Altitude Azimuth Distance (km) Brightness Sun altitude
Rises 02:31:01 0° 12° (NNE) 3,271 8.6 -11.4°
Reaches altitude 10° 02:33:21 10° 10° (N) 2,338 7.6 -11.1°
Maximum altitude 02:38:28 67° 289° (WNW) 843 4.1 -10.6°
Enters shadow 02:43:04 13° 208° (SSW) 2,136 5.7 -10.1°
